Weather History for Mojave, CA

Change the Weather History Date:

Sunday, December 8, 2013

  Actual Average Record
Temperature  
Mean Temperature 32 °F -  
Max Temperature 39 °F 58 °F 75 °F (1980)
Min Temperature 26 °F 33 °F 13 °F (1978)
Degree Days  
Heating Degree Days 32    
Moisture  
Dew Point 14 °F    
Average Humidity 46    
Maximum Humidity 59    
Minimum Humidity 28    
Precipitation  
Precipitation 0.00 in - - ()
Sea Level Pressure  
Sea Level Pressure 30.13 in    
Wind  
Wind Speed 12 mph (NNW)    
Max Wind Speed 29 mph    
Max Gust Speed 41 mph    
Visibility 10 miles    
Events      
Averages and records for this station are not official NWS values.
T = Trace of Precipitation, MM = Missing Value Source: NWS Daily Summary

Daily Weather History Graph

Daily Weather History Graph

Search for Another Location

Airport:

Trip Planner

Search our weather history database for the weather conditions in past years. The results will help you decide how hot, cold, wet, or windy it might be!

Date:

Astronomy

Dec. 08, 2013 Rise Set
Actual Time 6:48 AM PST 4:40 PM PST
Civil Twilight 6:20 AM PST 5:08 PM PST
Nautical Twilight 5:48 AM PST 5:40 PM PST
Astronomical Twilight 5:18 AM PST 6:11 PM PST
Moon 11:22 AM PST (12/8) 11:23 PM PST (12/8)
Length of Visible Light 10h 48m
Length of Day
9h 52m
Waxing Crescent, 41% of the Moon is Illuminated
Dec 8
Waxing Crescent
Dec 9
First Quarter
Dec 17
Full
Dec 25
Last Quarter
Jan 1
New

Hourly Weather History & Observations

Time (PST) Temp. Windchill Dew Point Humidity Pressure Visibility Wind Dir Wind Speed Gust Speed Precip Events Conditions
12:15 AM 32.0 °F 18.1 °F 15.8 °F 51% 30.03 in 10.0 mi WSW 27.6 mph 40.3 mph N/A   Clear
12:35 AM 32.0 °F 17.9 °F 15.8 °F 51% 30.03 in 10.0 mi WSW 28.8 mph 34.5 mph N/A   Clear
12:55 AM 32.0 °F 18.6 °F 15.8 °F 51% 30.04 in 10.0 mi WSW 25.3 mph 41.4 mph N/A   Clear
1:15 AM 32.0 °F 18.6 °F 15.8 °F 51% 30.05 in 10.0 mi WSW 25.3 mph 35.7 mph N/A   Clear
1:35 AM 32.0 °F 19.2 °F 15.8 °F 51% 30.05 in 10.0 mi West 23.0 mph 29.9 mph N/A   Clear
1:55 AM 32.0 °F 19.8 °F 15.8 °F 51% 30.06 in 10.0 mi West 20.7 mph 26.5 mph N/A   Clear
2:15 AM 32.0 °F 18.9 °F 15.8 °F 51% 30.06 in 10.0 mi West 24.2 mph 27.6 mph N/A   Clear
2:35 AM 32.0 °F 18.4 °F 15.8 °F 51% 30.06 in 10.0 mi West 26.5 mph 36.8 mph N/A   Clear
2:55 AM 32.0 °F 19.2 °F 15.8 °F 51% 30.06 in 10.0 mi WSW 23.0 mph 33.4 mph N/A   Clear
3:15 AM 32.0 °F 21.6 °F 15.8 °F 51% 30.06 in 10.0 mi WNW 15.0 mph 27.6 mph N/A   Clear
3:35 AM 32.0 °F 21.6 °F 15.8 °F 51% 30.07 in 10.0 mi WNW 15.0 mph 21.9 mph N/A   Clear
3:55 AM 32.0 °F 21.6 °F 14.0 °F 48% 30.07 in 10.0 mi West 15.0 mph 29.9 mph N/A   Clear
4:15 AM 32.0 °F 22.1 °F 14.0 °F 48% 30.06 in 10.0 mi NW 13.8 mph 27.6 mph N/A   Clear
4:35 AM 32.0 °F 23.6 °F 14.0 °F 48% 30.06 in 10.0 mi WNW 10.4 mph 17.3 mph N/A   Clear
4:55 AM 32.0 °F 21.6 °F 14.0 °F 48% 30.08 in 10.0 mi WNW 15.0 mph - N/A   Clear
5:15 AM 32.0 °F 22.1 °F 14.0 °F 48% 30.09 in 10.0 mi NW 13.8 mph 23.0 mph N/A   Clear
5:35 AM 32.0 °F 24.2 °F 12.2 °F 44% 30.09 in 10.0 mi NE 9.2 mph - N/A   Clear
5:55 AM 28.4 °F 23.3 °F 14.0 °F 55% 30.10 in 10.0 mi NNE 4.6 mph - N/A   Clear
6:15 AM 28.4 °F - 14.0 °F 55% 30.12 in 10.0 mi Calm Calm - N/A   Clear
6:35 AM 28.4 °F - 14.0 °F 55% 30.12 in 10.0 mi Calm Calm - N/A   Clear
6:55 AM 28.4 °F 21.2 °F 14.0 °F 55% 30.12 in 10.0 mi SSW 6.9 mph - N/A   Clear
7:15 AM 28.4 °F 23.3 °F 14.0 °F 55% 30.13 in 10.0 mi WSW 4.6 mph - N/A   Clear
7:35 AM 30.2 °F - 14.0 °F 51% 30.14 in 10.0 mi Calm Calm - N/A   Clear
7:55 AM 32.0 °F - 14.0 °F 48% 30.16 in 10.0 mi Calm Calm - N/A   Clear
8:15 AM 32.0 °F 28.7 °F 15.8 °F 51% 30.16 in 10.0 mi ENE 3.5 mph - N/A   Clear
8:35 AM 32.0 °F 28.7 °F 15.8 °F 51% 30.16 in 10.0 mi ESE 3.5 mph - N/A   Clear
8:55 AM 32.0 °F - 15.8 °F 51% 30.17 in 10.0 mi Calm Calm - N/A   Clear
9:15 AM 32.0 °F - 15.8 °F 51% 30.17 in 10.0 mi Calm Calm - N/A   Clear
9:35 AM 32.0 °F - 15.8 °F 51% 30.17 in 10.0 mi Calm Calm - N/A   Clear
9:55 AM 33.8 °F - 15.8 °F 48% 30.17 in 10.0 mi Calm Calm - N/A   Clear
10:15 AM 35.6 °F - 14.0 °F 41% 30.16 in 10.0 mi Calm Calm - N/A   Clear
10:35 AM 35.6 °F - 14.0 °F 41% 30.17 in 10.0 mi Calm Calm - N/A   Clear
10:55 AM 35.6 °F - 14.0 °F 41% 30.17 in 10.0 mi Calm Calm - N/A   Clear
11:15 AM 35.6 °F - 14.0 °F 41% 30.16 in 10.0 mi Calm Calm - N/A   Clear
11:35 AM 37.4 °F 34.9 °F 12.2 °F 36% 30.15 in 10.0 mi NE 3.5 mph - N/A   Clear
11:55 AM 37.4 °F - 10.4 °F 33% 30.13 in 10.0 mi Calm Calm - N/A   Clear
12:15 PM 37.4 °F - 10.4 °F 33% 30.12 in 10.0 mi Calm Calm - N/A   Clear
12:35 PM 37.4 °F - 10.4 °F 33% 30.12 in 10.0 mi Calm Calm - N/A   Clear
12:55 PM 37.4 °F - 10.4 °F 33% 30.11 in 10.0 mi Calm Calm - N/A   Clear
1:15 PM 39.2 °F - 10.4 °F 31% 30.11 in 10.0 mi Calm Calm - N/A   Clear
1:35 PM 39.2 °F 35.9 °F 12.2 °F 33% 30.12 in 10.0 mi NNE 4.6 mph - N/A   Clear
1:55 PM 39.2 °F - 10.4 °F 31% 30.11 in 10.0 mi Calm Calm - N/A   Clear
2:15 PM 39.2 °F 37.0 °F 10.4 °F 31% 30.12 in 10.0 mi North 3.5 mph - N/A   Clear
2:35 PM 39.2 °F - 10.4 °F 31% 30.11 in 10.0 mi Calm Calm - N/A   Clear
2:55 PM 39.2 °F - 10.4 °F 31% 30.10 in 10.0 mi Calm Calm - N/A   Clear
3:15 PM 39.2 °F - 10.4 °F 31% 30.11 in 10.0 mi Calm Calm - N/A   Clear
3:35 PM 39.2 °F - 10.4 °F 31% 30.11 in 10.0 mi Calm Calm - N/A   Clear
3:55 PM 39.2 °F 34.2 °F 8.6 °F 28% 30.10 in 10.0 mi NE 6.9 mph - N/A   Clear
4:15 PM 37.4 °F 32.8 °F 8.6 °F 30% 30.11 in 10.0 mi NE 5.8 mph - N/A   Clear
4:35 PM 37.4 °F 32.8 °F 10.4 °F 33% 30.11 in 10.0 mi NE 5.8 mph - N/A   Clear
4:55 PM 35.6 °F - 10.4 °F 35% 30.11 in 10.0 mi Calm Calm - N/A   Clear
5:15 PM 35.6 °F 31.7 °F 12.2 °F 38% 30.11 in 10.0 mi North 4.6 mph - N/A   Clear
5:35 PM 32.0 °F 26.4 °F 14.0 °F 48% 30.12 in 10.0 mi NNW 5.8 mph - N/A   Clear
5:55 PM 32.0 °F 26.4 °F 17.6 °F 55% 30.13 in 10.0 mi NNW 5.8 mph - N/A   Clear
6:15 PM 32.0 °F 25.6 °F 17.6 °F 55% 30.14 in 10.0 mi North 6.9 mph - N/A   Clear
6:35 PM 32.0 °F 24.8 °F 17.6 °F 55% 30.14 in 10.0 mi North 8.1 mph - N/A   Clear
6:55 PM 32.0 °F 24.2 °F 15.8 °F 51% 30.15 in 10.0 mi North 9.2 mph - N/A   Clear
7:15 PM 32.0 °F 24.8 °F 15.8 °F 51% 30.16 in 10.0 mi North 8.1 mph - N/A   Clear
7:35 PM 32.0 °F 24.8 °F 14.0 °F 48% 30.16 in 10.0 mi North 8.1 mph - N/A   Clear
7:55 PM 32.0 °F 27.5 °F 15.8 °F 51% 30.16 in 10.0 mi NNW 4.6 mph - N/A   Clear
8:15 PM 30.2 °F 22.6 °F 15.8 °F 55% 30.17 in 10.0 mi North 8.1 mph - N/A   Clear
8:35 PM 30.2 °F 22.6 °F 15.8 °F 55% 30.18 in 10.0 mi North 8.1 mph - N/A   Clear
8:55 PM 30.2 °F 22.6 °F 14.0 °F 51% 30.18 in 10.0 mi North 8.1 mph - N/A   Clear
9:15 PM 30.2 °F 23.4 °F 14.0 °F 51% 30.20 in 10.0 mi North 6.9 mph - N/A   Clear
9:35 PM 30.2 °F 23.4 °F 12.2 °F 47% 30.21 in 10.0 mi NNE 6.9 mph - N/A   Clear
9:55 PM 28.4 °F 21.2 °F 12.2 °F 51% 30.22 in 10.0 mi NNE 6.9 mph - N/A   Clear
10:15 PM 28.4 °F - 14.0 °F 55% 30.23 in 10.0 mi Calm Calm - N/A   Clear
10:35 PM 28.4 °F - 14.0 °F 55% 30.23 in 10.0 mi Calm Calm - N/A   Clear
10:55 PM 26.6 °F - 14.0 °F 59% 30.23 in 10.0 mi Calm Calm - N/A   Clear
11:15 PM 26.6 °F 22.6 °F 14.0 °F 59% 30.24 in 10.0 mi North 3.5 mph - N/A   Clear
11:35 PM 26.6 °F 22.6 °F 14.0 °F 59% 30.24 in 10.0 mi NE 3.5 mph - N/A   Clear
11:55 PM 28.4 °F 23.3 °F 12.2 °F 51% 30.24 in 10.0 mi NE 4.6 mph - N/A   Clear